Location: Forli
(44.2227°N, 12.0407°E)
Time: 03:57:25
(UTC+02:00)

DX 1 - Pass Details

Date: 15 April 2026
Orbit: 593 x 604 km, 98.4° (Epoch: 19 May)

Event Time Altitude Azimuth Distance (km) Brightness Sun altitude
Rises 03:14:11 0° 29° (NNE) 2,841 ? -29.4°
Reaches altitude 10° 03:16:55 10° 48° (NE) 1,933 ? -29.1°
Maximum altitude 03:19:53 19° 93° (E) 1,450 ? -28.8°
Enters shadow 03:20:23 18° 103° (ESE) 1,466 ? -28.7°
